Precipitable_Water
0.93 1.03 1.09 1.06 1.07 1.11 1.14 1.15 1.09 1.16 1.17 1.13 1.14 1.16 1.15 1.07 0.99 0.98 0.99 1.05 1.10 1.15 1.22 1.23 1.23 1.28 1.28 1.31 1.32 1.27 1.20 1.14 1.02 1.07 1.15 1.23 1.22 1.24 1.28 1.29 1.32 1.31 1.28
0.99 1.02 1.07 1.16 1.17 1.18 1.19 1.19 1.19 1.20 1.28 1.19 1.15 1.15 1.14 1.10 1.00 0.99 0.99 1.06 1.08 1.10 1.16 1.19 1.20 1.28 1.28 1.30 1.29 1.26 1.22 1.24 1.15 1.07 1.15 1.18 1.21 1.24 1.24 1.25 1.26 1.29 1.27
1.00 1.05 1.10 1.16 1.24 1.31 1.34 1.26 1.26 1.28 1.33 1.27 1.19 1.17 1.15 1.10 1.04 1.03 1.02 1.03 1.07 1.09 1.11 1.10 1.12 1.18 1.22 1.28 1.28 1.28 1.27 1.27 1.23 1.15 1.12 1.20 1.23 1.26 1.23 1.26 1.23 1.23 1.23
0.99 1.03 1.07 1.14 1.22 1.30 1.32 1.30 1.31 1.37 1.32 1.22 1.23 1.20 1.19 1.10 1.06 1.03 1.04 1.03 1.05 1.08 1.09 1.10 1.13 1.11 1.13 1.16 1.20 1.21 1.25 1.23 1.23 1.18 1.17 1.17 1.21 1.25 1.25 1.17 1.13 1.13 1.05
0.90 0.92 1.00 1.02 1.14 1.23 1.26 1.28 1.33 1.40 1.31 1.28 1.26 1.20 1.17 1.08 1.10 1.07 1.04 1.02 1.02 1.01 1.01 1.03 1.07 1.10 1.11 1.12 1.07 1.08 1.12 1.09 1.07 1.04 1.04 1.08 1.08 1.08 1.04 1.07 1.01 1.02 1.02
0.83 0.90 0.88 1.02 1.02 1.09 1.08 1.23 1.33 1.36 1.32 1.21 1.22 1.19 1.11 1.06 1.08 1.07 1.08 1.03 1.00 0.97 0.95 1.01 1.03 1.05 1.08 1.09 1.06 1.07 1.05 0.98 0.94 0.94 0.92 0.89 0.92 0.90 0.94 0.93 0.92 0.88 0.86
0.78 0.82 0.87 0.89 0.93 0.92 1.05 1.11 1.13 1.17 1.26 1.12 1.17 1.13 1.09 1.12 1.12 1.08 1.05 1.05 1.03 0.99 0.99 0.96 0.97 1.00 1.03 1.01 0.98 0.97 0.97 0.96 0.96 0.97 0.90 0.90 0.87 0.91 0.93 0.92 0.93 0.93 0.90
0.72 0.76 0.80 0.83 0.84 0.86 0.90 0.94 0.95 0.99 1.08 1.10 1.09 1.07 1.07 1.09 1.13 1.16 1.07 1.03 1.00 0.97 0.95 0.95 0.95 0.96 0.98 0.98 0.94 0.90 0.90 0.93 0.95 0.98 0.97 0.96 1.01 1.06 1.05 1.02 1.01 1.01 1.01
0.69 0.73 0.80 0.84 0.82 0.85 0.92 0.96 0.95 1.01 1.00 1.01 1.02 1.01 1.04 1.05 1.12 1.16 1.17 1.05 0.96 0.95 0.96 0.95 0.94 0.97 1.00 1.00 0.97 0.91 0.88 0.88 0.91 0.93 0.98 0.99 1.00 1.03 1.06 1.04 0.94 0.96 0.91
0.64 0.69 0.75 0.78 0.81 0.81 0.84 0.85 0.90 0.92 0.90 0.94 0.93 0.98 0.97 1.00 1.05 1.08 1.10 1.09 0.99 0.92 0.94 0.96 0.98 1.00 1.02 1.01 0.99 0.95 0.89 0.87 0.88 0.91 0.93 0.97 1.00 1.02 1.03 0.99 0.94 0.89 0.87
0.59 0.66 0.71 0.75 0.75 0.77 0.81 0.85 0.84 0.83 0.86 0.84 0.86 0.88 0.89 0.91 0.96 1.00 1.01 0.99 0.95 0.90 0.90 0.93 0.95 1.00 1.01 0.99 0.97 0.92 0.86 0.87 0.90 0.91 0.93 0.92 0.92 0.92 0.92 0.94 0.92 0.91 0.82
0.48 0.50 0.55 0.64 0.69 0.72 0.74 0.76 0.77 0.78 0.78 0.76 0.80 0.79 0.83 0.85 0.87 0.90 0.90 0.93 0.91 0.88 0.85 0.82 0.89 0.92 0.93 0.92 0.89 0.84 0.84 0.86 0.86 0.86 0.84 0.84 0.82 0.81 0.81 0.83 0.80 0.82 0.80
0.44 0.42 0.44 0.48 0.53 0.58 0.62 0.63 0.66 0.70 0.70 0.71 0.72 0.72 0.74 0.76 0.77 0.80 0.81 0.83 0.83 0.82 0.82 0.80 0.83 0.85 0.84 0.84 0.83 0.80 0.81 0.81 0.80 0.77 0.76 0.75 0.75 0.73 0.69 0.65 0.58 0.53 0.49
0.41 0.39 0.39 0.40 0.42 0.47 0.50 0.53 0.55 0.58 0.59 0.61 0.64 0.65 0.67 0.69 0.70 0.72 0.73 0.74 0.75 0.75 0.74 0.74 0.75 0.75 0.75 0.75 0.76 0.76 0.74 0.72 0.71 0.69 0.63 0.58 0.57 0.52 0.47 0.45 0.40 0.40 0.38
0.38 0.39 0.38 0.37 0.37 0.38 0.41 0.43 0.46 0.50 0.52 0.52 0.56 0.58 0.58 0.60 0.64 0.67 0.67 0.67 0.67 0.67 0.67 0.66 0.64 0.65 0.64 0.63 0.63 0.63 0.61 0.60 0.58 0.56 0.53 0.51 0.48 0.46 0.44 0.43 0.38 0.34 0.30
0.35 0.36 0.37 0.37 0.36 0.36 0.37 0.38 0.42 0.44 0.45 0.47 0.48 0.49 0.51 0.55 0.57 0.60 0.61 0.61 0.62 0.61 0.59 0.58 0.57 0.57 0.57 0.57 0.57 0.57 0.56 0.54 0.52 0.50 0.48 0.46 0.43 0.39 0.37 0.34 0.31 0.29 0.26
0.32 0.33 0.33 0.34 0.34 0.34 0.33 0.33 0.34 0.38 0.42 0.43 0.44 0.45 0.46 0.46 0.46 0.47 0.49 0.51 0.52 0.53 0.51 0.50 0.50 0.51 0.51 0.51 0.51 0.51 0.50 0.49 0.47 0.44 0.42 0.40 0.38 0.36 0.33 0.31 0.29 0.25 0.22
0.28 0.29 0.30 0.31 0.31 0.32 0.31 0.31 0.31 0.31 0.32 0.34 0.39 0.40 0.41 0.42 0.42 0.42 0.42 0.41 0.39 0.42 0.42 0.41 0.41 0.41 0.41 0.40 0.40 0.40 0.39 0.39 0.38 0.36 0.34 0.32 0.30 0.28 0.26 0.25 0.24 0.23 0.21
0.24 0.25 0.26 0.26 0.27 0.27 0.27 0.28 0.29 0.29 0.30 0.30 0.32 0.34 0.35 0.37 0.37 0.38 0.38 0.37 0.36 0.36 0.35 0.35 0.35 0.34 0.33 0.33 0.32 0.31 0.30 0.29 0.29 0.28 0.28 0.27 0.27 0.25 0.23 0.22 0.21 0.20 0.19
0.22 0.22 0.23 0.24 0.24 0.24 0.24 0.23 0.23 0.24 0.25 0.27 0.28 0.29 0.31 0.31 0.31 0.31 0.32 0.32 0.32 0.32 0.33 0.32 0.31 0.31 0.30 0.29 0.28 0.27 0.26 0.25 0.24 0.24 0.23 0.23 0.22 0.21 0.20 0.19 0.19 0.17 0.17
0.19 0.19 0.20 0.20 0.21 0.22 0.22 0.21 0.21 0.22 0.22 0.22 0.23 0.25 0.26 0.26 0.26 0.27 0.28 0.28 0.28 0.27 0.26 0.26 0.26 0.26 0.26 0.25 0.24 0.23 0.23 0.22 0.21 0.21 0.21 0.21 0.21 0.19 0.19 0.18 0.17 0.16 0.15
0.17 0.17 0.17 0.17 0.17 0.18 0.19 0.20 0.20 0.20 0.20 0.20 0.21 0.22 0.22 0.22 0.21 0.21 0.21 0.21 0.22 0.22 0.22 0.21 0.21 0.21 0.21 0.20 0.20 0.19 0.18 0.18 0.18 0.18 0.18 0.17 0.17 0.17 0.16 0.15 0.14 0.13 0.13
0.15 0.16 0.16 0.16 0.17 0.16 0.17 0.17 0.17 0.17 0.17 0.16 0.16 0.16 0.17 0.16 0.16 0.16 0.16 0.16 0.16 0.16 0.16 0.17 0.16 0.16 0.15 0.15 0.14 0.15 0.14 0.13 0.14 0.15 0.14 0.14 0.14 0.14 0.14 0.13 0.13 0.12 0.11
0.12 0.12 0.13 0.14 0.15 0.15 0.15 0.15 0.16 0.16 0.16 0.15 0.15 0.14 0.14 0.13 0.13 0.13 0.13 0.13 0.13 0.13 0.13 0.13 0.12 0.12 0.12 0.12 0.12 0.12 0.11 0.12 0.12 0.12 0.13 0.12 0.12 0.12 0.12 0.12 0.11 0.11 0.11
0.10 0.10 0.10 0.11 0.12 0.12 0.13 0.13 0.14 0.14 0.14 0.14 0.14 0.14 0.14 0.14 0.13 0.13 0.13 0.13 0.13 0.12 0.12 0.12 0.12 0.12 0.12 0.12 0.11 0.11 0.10 0.10 0.10 0.11 0.11 0.11 0.11 0.10 0.10 0.10 0.10 0.10 0.09
0.10 0.10 0.10 0.09 0.10 0.10 0.11 0.11 0.11 0.12 0.12 0.12 0.12 0.12 0.12 0.12 0.12 0.12 0.12 0.12 0.12 0.12 0.11 0.11 0.11 0.11 0.11 0.11 0.10 0.10 0.09 0.09 0.09 0.10 0.10 0.10 0.09 0.09 0.09 0.09 0.09 0.09 0.09
Wind_Speed
27 29 33 35 36 38 38 36 34 33 33 32 31 31 29 27 25 23 22 21 21 21 21 20 20 21 24 25 25 25 25 25 23 23 24 24 23 26 26 26 27 28 28
23 24 27 30 32 35 36 35 34 33 33 32 31 31 29 27 25 24 23 22 22 21 22 22 23 23 24 25 27 27 27 27 27 27 26 27 27 27 27 26 26 27 29
19 19 21 24 27 30 32 32 32 32 33 31 31 30 29 27 25 25 24 23 23 23 23 23 23 23 24 25 28 30 31 28 30 29 28 28 29 29 28 28 27 26 25
17 19 19 20 23 26 29 29 30 30 32 30 30 30 29 27 25 25 25 24 23 23 24 24 24 23 24 23 24 26 27 28 28 30 31 29 29 30 31 29 28 27 25
16 17 18 21 22 23 26 27 28 27 30 27 29 30 29 27 25 25 25 25 24 24 24 24 24 25 25 25 24 23 23 25 24 25 25 25 25 25 26 26 26 26 26
12 13 16 17 19 22 23 24 28 27 27 28 30 30 29 27 25 25 25 25 25 24 24 24 23 23 23 24 24 23 24 24 25 24 24 24 25 25 25 25 25 25 26
10 11 13 15 16 18 20 20 23 23 25 26 27 29 29 28 26 26 26 26 26 26 25 25 24 24 24 24 23 23 22 22 23 24 24 24 23 23 24 25 25 26 26
10 10 10 11 12 14 17 20 23 24 24 24 25 26 28 28 29 28 27 26 25 25 25 25 24 24 24 25 26 25 24 24 24 24 25 25 26 27 27 26 27 27 27
12 11 9 8 8 10 11 13 18 18 21 26 23 24 25 27 29 28 31 28 27 26 25 26 26 26 26 26 28 28 27 26 25 25 26 26 26 27 29 28 28 28 29
13 11 10 8 7 9 12 10 12 13 16 18 21 23 23 25 27 28 28 30 30 29 27 27 26 27 27 28 28 30 29 30 29 28 28 28 29 29 30 31 31 32 32
12 12 10 10 8 6 8 6 10 13 13 16 17 16 19 21 24 25 27 28 30 30 29 29 28 28 29 29 30 31 32 31 30 29 28 28 28 27 28 28 29 31 31
12 12 11 10 9 6 6 7 8 11 13 12 16 15 14 17 17 19 20 22 25 27 30 30 30 28 28 29 29 30 30 31 30 30 28 27 28 27 27 26 26 25 26
12 12 12 11 10 9 9 9 10 11 13 14 14 16 17 18 18 17 19 21 23 24 24 25 25 28 29 28 26 26 27 28 30 29 28 26 25 25 26 26 25 25 25
13 12 12 12 11 11 10 10 11 11 11 11 13 13 15 16 17 18 20 20 20 22 23 24 24 22 21 23 25 24 25 25 25 26 26 26 26 27 27 27 26 26 27
14 14 14 13 13 12 12 11 11 11 11 12 12 13 13 13 15 16 18 19 19 20 22 22 22 22 21 22 22 23 23 25 25 25 26 27 27 27 28 29 28 28 28
16 16 16 16 15 15 14 14 13 12 11 11 11 12 12 13 13 14 15 17 18 19 19 21 22 23 22 23 24 25 25 26 26 27 28 28 28 27 27 28 29 29 30
19 19 18 18 18 18 17 16 17 16 14 14 13 13 13 13 14 14 15 15 16 17 18 19 20 20 21 22 22 23 24 25 26 27 27 27 28 28 28 29 29 29 29
21 21 21 21 20 20 20 20 19 19 19 19 17 17 16 16 16 16 16 17 17 16 17 17 18 19 20 21 22 22 22 23 24 24 25 26 27 28 28 28 29 29 30
24 24 24 24 23 23 23 23 23 22 22 22 22 21 21 20 19 19 19 19 19 19 19 19 20 20 21 21 22 22 23 23 24 25 26 26 27 28 28 29 30 31 32
27 27 27 27 26 26 26 25 25 25 25 24 24 24 24 24 23 23 22 22 22 23 23 23 23 23 24 24 24 25 25 26 26 27 28 28 29 30 30 31 32 33 34
30 30 30 29 29 29 28 28 27 27 27 27 26 26 26 26 26 26 26 26 26 26 26 26 26 26 27 27 27 27 28 28 29 29 30 30 31 31 32 33 33 34 35
31 31 31 31 31 31 30 30 30 29 29 29 29 29 29 29 28 28 28 28 28 28 28 29 28 28 28 29 29 30 30 30 31 31 32 32 32 33 33 33 34 35 35
32 31 31 31 31 30 30 29 29 29 30 30 30 30 30 30 30 29 29 30 30 30 29 29 29 29 29 30 30 31 31 32 32 32 33 33 33 33 34 34 34 34 35
31 30 30 30 29 29 29 29 29 29 29 29 30 29 29 29 29 29 29 29 29 29 29 29 29 30 30 30 30 31 31 32 32 33 33 34 34 34 34 34 34 34 35
26 26 26 26 27 27 27 27 28 28 28 29 29 29 29 29 29 29 29 30 30 29 29 29 29 30 30 30 30 30 31 31 32 32 32 32 32 33 33 33 34 34 34
22 22 22 22 23 23 24 24 25 26 26 26 27 27 28 28 29 29 29 29 29 29 29 29 29 30 30 30 30 31 31 31 31 32 32 32 32 32 33 33 33 34 34
Wind_Direction
260 258 251 246 243 240 241 242 241 241 238 236 235 235 237 243 247 247 246 244 241 240 236 235 232 230 227 226 227 226 228 229 234 235 237 238 239 239 243 253 252 251 251
262 259 255 248 245 241 239 238 239 239 235 234 232 232 234 240 243 244 241 241 240 239 236 237 237 233 231 231 231 230 231 237 241 240 242 242 243 245 250 256 256 254 251
264 260 256 253 247 241 237 239 239 236 232 229 229 229 232 237 240 242 240 239 240 238 237 237 239 236 236 236 236 236 240 242 243 242 246 247 245 248 251 255 253 252 251
266 261 257 256 251 244 240 239 239 234 228 225 227 227 231 236 241 240 238 238 238 238 237 237 237 238 238 236 237 239 241 238 242 244 248 250 249 251 249 250 251 249 251
269 266 262 259 254 250 244 240 235 233 225 228 227 228 230 235 238 239 237 236 236 237 239 238 238 240 241 239 239 239 238 239 242 244 244 248 246 248 246 247 248 249 249
281 275 265 264 257 253 250 241 234 231 231 231 231 230 228 232 236 239 238 237 237 237 237 237 238 238 238 238 238 239 241 241 241 242 244 245 247 249 247 246 247 248 249
305 288 276 272 263 253 244 238 237 237 231 235 230 228 228 231 237 239 239 238 237 238 238 239 240 240 239 239 238 239 240 240 242 242 243 244 246 247 248 249 249 250 251
335 312 302 283 269 258 246 241 240 241 230 231 227 228 234 238 241 240 239 238 237 237 238 238 237 239 241 241 240 240 242 244 245 246 248 249 252 252 252 254 253 253 255
350 338 316 309 276 256 245 235 232 223 231 232 223 235 239 242 244 245 237 238 237 238 238 239 241 243 245 245 244 242 244 246 249 249 249 252 253 254 254 254 255 256 257
360 351 342 317 294 265 245 237 237 229 231 240 236 237 242 245 245 245 240 239 238 239 240 242 244 246 248 249 248 244 244 248 249 251 253 254 256 258 256 258 256 257 260
353 357 348 349 317 286 278 274 258 248 245 237 229 237 246 248 243 243 241 241 238 238 240 242 247 249 251 250 252 250 248 247 250 251 251 256 258 255 254 257 260 258 260
347 349 345 341 334 307 309 289 275 260 259 256 236 248 255 242 243 242 241 233 233 240 244 246 248 250 251 252 252 249 246 246 249 248 252 254 255 254 255 259 261 257 261
332 338 338 340 335 324 313 310 293 284 271 270 259 259 258 254 252 249 247 244 241 246 243 244 250 254 255 247 248 245 246 247 246 245 250 251 251 250 254 256 260 260 263
319 321 325 326 328 326 315 311 305 296 291 284 275 266 263 260 256 251 252 247 246 246 247 249 251 247 247 246 243 244 244 243 240 245 245 248 253 256 255 257 260 263 265
313 313 310 312 313 313 313 310 304 300 293 286 281 276 270 266 262 259 251 248 251 249 248 247 248 251 245 244 245 244 243 242 247 246 243 248 254 258 258 258 262 264 266
307 305 304 301 301 302 299 296 301 296 296 293 287 280 274 271 269 264 256 254 253 254 254 252 249 250 249 249 248 248 248 249 250 253 253 255 255 258 260 261 264 266 270
303 302 299 298 294 291 293 291 288 288 290 290 288 283 277 273 272 268 264 264 260 257 256 255 253 253 250 249 249 250 251 252 252 254 256 258 257 260 262 265 267 269 272
298 297 295 294 291 289 287 286 285 284 282 282 283 282 279 276 273 270 266 262 262 262 260 259 258 256 256 255 256 256 256 257 257 258 259 261 262 264 266 269 271 272 273
294 292 291 289 287 285 283 282 281 280 279 278 277 277 276 275 273 272 269 266 264 265 264 263 262 261 260 259 258 260 260 261 263 264 265 266 267 268 270 271 272 274 276
291 290 287 285 284 282 281 280 278 277 276 276 275 275 273 272 272 272 270 268 267 265 265 264 263 262 261 261 262 262 263 265 266 267 268 268 270 270 272 274 276 278 280
289 287 285 283 281 280 278 277 276 275 274 273 273 273 273 271 270 269 269 267 267 266 265 265 265 265 265 265 265 265 266 267 269 269 270 272 273 274 276 276 278 279 281
289 287 284 282 281 279 277 274 273 273 272 272 272 272 272 270 269 269 268 267 267 266 266 266 265 265 266 266 267 267 268 269 270 271 272 273 274 275 276 277 279 280 282
289 287 284 282 279 278 276 274 273 272 272 272 271 270 270 269 268 267 267 267 267 266 266 266 265 265 267 268 268 268 269 270 270 271 272 274 275 276 276 278 279 280 282
290 287 285 282 280 277 275 274 273 272 272 271 270 270 269 268 268 268 267 266 266 266 266 265 265 265 267 268 269 270 270 270 271 272 273 274 275 276 276 278 279 281 282
293 290 287 284 281 279 277 276 275 274 273 272 270 269 268 268 267 267 267 266 265 266 266 266 266 266 267 269 270 271 272 272 272 272 273 275 275 276 277 278 280 281 282
299 296 293 289 286 283 280 279 277 276 275 273 271 270 269 268 267 267 267 267 265 265 266 266 266 267 268 270 271 271 272 273 273 273 274 275 276 277 278 279 280 281 282